| time (UTC) | temp C | wind direction | speed KPH | gust KPH | rain 1hr cm | rain 24hr cm | rain mn cm | humidity % | barometer mb |
| 20260506021505 | 16 | 225 | 1.6 | 6.4 | 0.00 | 0.00 | 0.00 | 71 | 1016.3 |
| 20260506021004 | 16 | 225 | 3.2 | 8.0 | 0.00 | 0.00 | 0.00 | 71 | 1016.2 |
| 20260506020505 | 16 | 225 | 1.6 | 6.4 | 0.00 | 0.00 | 0.00 | 70 | 1016.2 |
| 20260506020005 | 16 | 270 | 1.6 | 6.4 | 0.00 | 0.00 | 0.00 | 70 | 1016.4 |
| 20260506015505 | 16 | 293 | 1.6 | 6.4 | 0.00 | 0.00 | 0.00 | 70 | 1016.3 |
| 20260506015005 | 16 | 248 | 3.2 | 6.4 | 0.00 | 0.00 | 0.00 | 70 | 1016.4 |
| 20260506014505 | 16 | 203 | 1.6 | 4.8 | 0.00 | 0.00 | 0.00 | 70 | 1016.3 |
| 20260506014004 | 16 | 225 | 1.6 | 4.8 | 0.00 | 0.00 | 0.00 | 70 | 1016.4 |
| 20260506013505 | 16 | 225 | 1.6 | 3.2 | 0.00 | 0.00 | 0.00 | 70 | 1016.4 |
| 20260506013004 | 16 | 293 | 1.6 | 3.2 | 0.00 | 0.00 | 0.00 | 70 | 1016.3 |
| 20260506012505 | 16 | 225 | 3.2 | 8.0 | 0.00 | 0.00 | 0.00 | 69 | 1016.4 |
| 20260506012045 | 16 | 248 | 1.6 | 6.4 | 0.00 | 0.00 | 0.00 | 69 | 1016.3 |
| 20260506011504 | 16 | 315 | 1.6 | 6.4 | 0.00 | 0.00 | 0.00 | 69 | 1016.3 |
| 20260506011005 | 16 | 270 | 1.6 | 4.8 | 0.00 | 0.00 | 0.00 | 69 | 1016.3 |
| 20260506010505 | 16 | 225 | 3.2 | 9.7 | 0.00 | 0.00 | 0.00 | 69 | 1016.4 |
| 20260506010004 | 16 | 225 | 3.2 | 8.0 | 0.00 | 0.00 | 0.00 | 68 | 1016.3 |
| 20260506005505 | 16 | 315 | 3.2 | 6.4 | 0.00 | 0.00 | 0.00 | 69 | 1016.3 |
| 20260506005025 | 16 | 225 | 1.6 | 6.4 | 0.00 | 0.00 | 0.00 | 69 | 1016.2 |
| 20260506004505 | 16 | 225 | 3.2 | 6.4 | 0.00 | 0.00 | 0.00 | 69 | 1016.3 |
| 20260506004004 | 16 | 225 | 1.6 | 9.7 | 0.00 | 0.00 | 0.00 | 69 | 1016.2 |
| 20260506003524 | 16 | 225 | 3.2 | 8.0 | 0.00 | 0.00 | 0.00 | 69 | 1016.1 |
| 20260506003005 | 16 | 270 | 3.2 | 9.7 | 0.00 | 0.00 | 0.00 | 69 | 1016.1 |
| 20260506002525 | 17 | 225 | 3.2 | 6.4 | 0.00 | 0.00 | 0.00 | 69 | 1016.1 |
| 20260506002004 | 17 | 225 | 1.6 | 4.8 | 0.00 | 0.00 | 0.00 | 68 | 1016.1 |
| 20260506001505 | 17 | 225 | 3.2 | 8.0 | 0.00 | 0.00 | 0.00 | 68 | 1016.0 |
| 20260506001004 | 17 | 248 | 3.2 | 8.0 | 0.00 | 0.00 | 0.00 | 68 | 1016.0 |
| 20260506000504 | 17 | 225 | 1.6 | 4.8 | 0.00 | 0.00 | 0.00 | 68 | 1015.9 |
| 20260506000004 | 17 | 338 | 1.6 | 6.4 | 0.00 | 0.00 | 0.00 | 67 | 1015.9 |
| 20260505235525 | 17 | 338 | 1.6 | 4.8 | 0.00 | 0.00 | 0.00 | 67 | 1015.9 |
| 20260505235004 | 17 | 293 | 1.6 | 4.8 | 0.00 | 0.00 | 0.00 | 67 | 1015.9 |
| 20260505234504 | 17 | 248 | 1.6 | 4.8 | 0.00 | 0.00 | 0.00 | 66 | 1015.9 |
| 20260505234024 | 17 | 203 | 1.6 | 6.4 | 0.00 | 0.00 | 0.00 | 66 | 1015.9 |
| 20260505233504 | 17 | 270 | 1.6 | 3.2 | 0.00 | 0.00 | 0.00 | 65 | 1015.9 |
| 20260505233044 | 17 | 225 | 1.6 | 4.8 | 0.00 | 0.00 | 0.00 | 65 | 1015.9 |
| 20260505232504 | 18 | 248 | 1.6 | 4.8 | 0.00 | 0.00 | 0.00 | 65 | 1016.0 |
| 20260505232024 | 18 | 225 | 1.6 | 3.2 | 0.00 | 0.00 | 0.00 | 64 | 1016.0 |
| 20260505231504 | 18 | 225 | 1.6 | 4.8 | 0.00 | 0.00 | 0.00 | 64 | 1015.9 |
| 20260505231004 | 18 | 293 | 1.6 | 4.8 | 0.00 | 0.00 | 0.00 | 64 | 1016.0 |
| 20260505230525 | 18 | 315 | 1.6 | 3.2 | 0.00 | 0.00 | 0.00 | 64 | 1015.9 |
| 20260505230024 | 18 | 315 | 1.6 | 4.8 | 0.00 | 0.00 | 0.00 | 64 | 1016.0 |
| 20260505225504 | 18 | 45 | 1.6 | 3.2 | 0.00 | 0.00 | 0.00 | 64 | 1016.0 |
| 20260505225004 | 18 | 338 | 1.6 | 4.8 | 0.00 | 0.00 | 0.00 | 64 | 1015.9 |
| 20260505224504 | 18 | 293 | 3.2 | 6.4 | 0.00 | 0.00 | 0.00 | 64 | 1015.9 |
| 20260505224004 | 18 | 0.0 | 3.2 | 0.00 | 0.00 | 0.00 | 64 | 1015.9 | |
| 20260505223504 | 17 | 338 | 1.6 | 6.4 | 0.00 | 0.00 | 0.00 | 64 | 1016.0 |
| 20260505223005 | 17 | 338 | 3.2 | 9.7 | 0.00 | 0.00 | 0.00 | 64 | 1016.0 |
| 20260505222504 | 17 | 338 | 3.2 | 6.4 | 0.00 | 0.00 | 0.00 | 65 | 1016.1 |
| 20260505222004 | 17 | 315 | 3.2 | 6.4 | 0.00 | 0.00 | 0.00 | 64 | 1016.2 |
| 20260505221524 | 17 | 338 | 3.2 | 8.0 | 0.00 | 0.00 | 0.00 | 64 | 1016.1 |
| 20260505221005 | 17 | 0 | 1.6 | 6.4 | 0.00 | 0.00 | 0.00 | 65 | 1016.1 |
| 20260505220504 | 17 | 338 | 1.6 | 8.0 | 0.00 | 0.00 | 0.00 | 65 | 1016.2 |
| 20260505220004 | 17 | 338 | 1.6 | 3.2 | 0.00 | 0.00 | 0.00 | 65 | 1016.2 |
| 20260505215504 | 17 | 338 | 1.6 | 6.4 | 0.00 | 0.00 | 0.00 | 65 | 1016.2 |
| 20260505215004 | 17 | 293 | 1.6 | 6.4 | 0.00 | 0.00 | 0.00 | 65 | 1016.3 |
| 20260505214504 | 17 | 315 | 1.6 | 8.0 | 0.00 | 0.00 | 0.00 | 66 | 1016.2 |
| 20260505214004 | 17 | 338 | 1.6 | 8.0 | 0.00 | 0.00 | 0.00 | 66 | 1016.4 |
| 20260505213504 | 17 | 338 | 1.6 | 4.8 | 0.00 | 0.00 | 0.00 | 66 | 1016.4 |
| 20260505213004 | 17 | 338 | 1.6 | 4.8 | 0.00 | 0.00 | 0.00 | 67 | 1016.5 |
| 20260505212524 | 17 | 315 | 3.2 | 4.8 | 0.00 | 0.00 | 0.00 | 66 | 1016.4 |
| 20260505212004 | 17 | 338 | 3.2 | 6.4 | 0.00 | 0.00 | 0.00 | 67 | 1016.4 |
| 20260505211524 | 17 | 338 | 4.8 | 9.7 | 0.00 | 0.00 | 0.00 | 66 | 1016.5 |
| 20260505211004 | 17 | 45 | 3.2 | 8.0 | 0.00 | 0.00 | 0.00 | 65 | 1016.4 |
| 20260505210504 | 18 | 338 | 1.6 | 4.8 | 0.00 | 0.00 | 0.00 | 65 | 1016.3 |
| 20260505210004 | 18 | 45 | 1.6 | 4.8 | 0.00 | 0.00 | 0.00 | 64 | 1016.4 |
| 20260505205504 | 18 | 45 | 1.6 | 4.8 | 0.00 | 0.00 | 0.00 | 63 | 1016.3 |
| 20260505205004 | 18 | 0.0 | 3.2 | 0.00 | 0.00 | 0.00 | 63 | 1016.2 | |
| 20260505204504 | 18 | 338 | 1.6 | 4.8 | 0.00 | 0.00 | 0.00 | 64 | 1016.2 |
| 20260505204004 | 18 | 135 | 1.6 | 3.2 | 0.00 | 0.00 | 0.00 | 65 | 1016.3 |
| 20260505203504 | 17 | 0.0 | 3.2 | 0.00 | 0.00 | 0.00 | 66 | 1016.3 | |
| 20260505203004 | 17 | 45 | 3.2 | 6.4 | 0.00 | 0.00 | 0.00 | 65 | 1016.3 |
| 20260505202503 | 17 | 23 | 3.2 | 6.4 | 0.00 | 0.00 | 0.00 | 64 | 1016.3 |
| 20260505202004 | 18 | 315 | 1.6 | 6.4 | 0.00 | 0.00 | 0.00 | 63 | 1016.5 |
| 20260505201504 | 18 | 315 | 1.6 | 4.8 | 0.00 | 0.00 | 0.00 | 63 | 1016.5 |
| 20260505201004 | 18 | 338 | 1.6 | 4.8 | 0.00 | 0.00 | 0.00 | 62 | 1016.7 |
| 20260505200503 | 18 | 248 | 1.6 | 4.8 | 0.00 | 0.00 | 0.00 | 62 | 1016.7 |
| 20260505200003 | 18 | 225 | 1.6 | 4.8 | 0.00 | 0.00 | 0.00 | 63 | 1016.7 |
| 20260505195504 | 18 | 315 | 1.6 | 4.8 | 0.00 | 0.00 | 0.00 | 65 | 1016.6 |
| 20260505195024 | 17 | 338 | 3.2 | 8.0 | 0.00 | 0.00 | 0.00 | 66 | 1016.7 |
| 20260505194504 | 17 | 315 | 1.6 | 6.4 | 0.00 | 0.00 | 0.00 | 66 | 1016.7 |
| 20260505194003 | 17 | 315 | 3.2 | 6.4 | 0.00 | 0.00 | 0.00 | 67 | 1016.7 |
| 20260505193504 | 17 | 203 | 1.6 | 6.4 | 0.00 | 0.00 | 0.00 | 68 | 1016.8 |
| 20260505193004 | 17 | 315 | 3.2 | 6.4 | 0.00 | 0.00 | 0.00 | 69 | 1016.8 |
| 20260505192504 | 17 | 338 | 1.6 | 4.8 | 0.00 | 0.00 | 0.00 | 70 | 1016.8 |
| 20260505192003 | 17 | 270 | 3.2 | 8.0 | 0.00 | 0.00 | 0.00 | 69 | 1016.8 |
| 20260505191524 | 17 | 293 | 3.2 | 8.0 | 0.00 | 0.00 | 0.00 | 69 | 1016.8 |
| 20260505191003 | 17 | 248 | 3.2 | 6.4 | 0.00 | 0.00 | 0.00 | 69 | 1016.7 |
| 20260505190504 | 17 | 293 | 1.6 | 6.4 | 0.00 | 0.00 | 0.00 | 69 | 1016.8 |
| 20260505190004 | 17 | 270 | 3.2 | 9.7 | 0.00 | 0.00 | 0.00 | 70 | 1016.9 |
| 20260505185503 | 17 | 293 | 3.2 | 11.3 | 0.00 | 0.00 | 0.00 | 70 | 1016.8 |
| 20260505185025 | 17 | 293 | 3.2 | 6.4 | 0.00 | 0.00 | 0.00 | 71 | 1016.7 |
| 20260505184503 | 16 | 270 | 1.6 | 4.8 | 0.00 | 0.00 | 0.00 | 72 | 1016.7 |
| 20260505184004 | 16 | 225 | 3.2 | 8.0 | 0.00 | 0.00 | 0.00 | 73 | 1016.8 |
| 20260505183503 | 16 | 315 | 1.6 | 3.2 | 0.00 | 0.00 | 0.00 | 74 | 1016.9 |
| 20260505183024 | 15 | 315 | 1.6 | 4.8 | 0.00 | 0.00 | 0.00 | 75 | 1016.9 |
| 20260505182504 | 15 | 248 | 1.6 | 6.4 | 0.00 | 0.00 | 0.00 | 75 | 1016.8 |
| 20260505182004 | 15 | 225 | 1.6 | 8.0 | 0.00 | 0.00 | 0.00 | 76 | 1016.9 |
| 20260505181504 | 15 | 315 | 1.6 | 4.8 | 0.00 | 0.00 | 0.00 | 76 | 1016.7 |
| 20260505181024 | 15 | 338 | 3.2 | 8.0 | 0.00 | 0.00 | 0.00 | 76 | 1016.8 |
| 20260505180503 | 15 | 315 | 1.6 | 4.8 | 0.00 | 0.00 | 0.00 | 78 | 1016.7 |
| 20260505180003 | 15 | 315 | 1.6 | 4.8 | 0.00 | 0.00 | 0.00 | 77 | 1016.7 |
| 20260505175524 | 15 | 293 | 3.2 | 4.8 | 0.00 | 0.00 | 0.00 | 78 | 1016.8 |
| 20260505175003 | 14 | 225 | 1.6 | 4.8 | 0.00 | 0.00 | 0.00 | 79 | 1016.7 |
| 20260505174504 | 14 | 248 | 1.6 | 6.4 | 0.00 | 0.00 | 0.00 | 79 | 1016.7 |
| 20260505174024 | 14 | 225 | 1.6 | 4.8 | 0.00 | 0.00 | 0.00 | 80 | 1016.6 |
| 20260505173523 | 14 | 293 | 1.6 | 4.8 | 0.00 | 0.00 | 0.00 | 80 | 1016.6 |
| 20260505173003 | 14 | 338 | 1.6 | 3.2 | 0.00 | 0.00 | 0.00 | 79 | 1016.4 |
| 20260505172504 | 14 | 338 | 3.2 | 8.0 | 0.00 | 0.00 | 0.00 | 79 | 1016.5 |
| 20260505172003 | 14 | 23 | 3.2 | 4.8 | 0.00 | 0.00 | 0.00 | 79 | 1016.4 |
| 20260505171503 | 14 | 45 | 1.6 | 4.8 | 0.00 | 0.00 | 0.00 | 78 | 1016.4 |
| 20260505171004 | 14 | 315 | 1.6 | 4.8 | 0.00 | 0.00 | 0.00 | 78 | 1016.4 |
| 20260505170524 | 14 | 315 | 1.6 | 3.2 | 0.00 | 0.00 | 0.00 | 78 | 1016.4 |
| 20260505170004 | 14 | 315 | 1.6 | 3.2 | 0.00 | 0.00 | 0.00 | 78 | 1016.3 |
| 20260505165503 | 14 | 315 | 1.6 | 3.2 | 0.00 | 0.00 | 0.00 | 78 | 1016.4 |
| 20260505165024 | 14 | 315 | 1.6 | 3.2 | 0.00 | 0.00 | 0.00 | 78 | 1016.3 |
| 20260505164504 | 14 | 293 | 1.6 | 4.8 | 0.00 | 0.00 | 0.00 | 77 | 1016.2 |
| 20260505164003 | 14 | 315 | 1.6 | 6.4 | 0.00 | 0.00 | 0.00 | 78 | 1016.3 |
| 20260505163503 | 14 | 338 | 1.6 | 4.8 | 0.00 | 0.00 | 0.00 | 78 | 1016.2 |
| 20260505163003 | 13 | 0.0 | 3.2 | 0.00 | 0.00 | 0.00 | 78 | 1016.2 | |
| 20260505162503 | 13 | 338 | 1.6 | 3.2 | 0.00 | 0.00 | 0.00 | 78 | 1016.2 |
| 20260505162004 | 13 | 315 | 1.6 | 3.2 | 0.00 | 0.00 | 0.00 | 78 | 1016.1 |
| 20260505161503 | 13 | 315 | 1.6 | 3.2 | 0.00 | 0.00 | 0.00 | 78 | 1016.2 |
| 20260505161003 | 13 | 248 | 1.6 | 3.2 | 0.00 | 0.00 | 0.00 | 78 | 1016.1 |
| 20260505160503 | 13 | 0.0 | 3.2 | 0.00 | 0.00 | 0.00 | 79 | 1016.2 | |
| 20260505153003 | 12 | 0.0 | 3.2 | 0.00 | 0.00 | 0.00 | 84 | 1016.0 | |
| 20260505152503 | 12 | 203 | 1.6 | 3.2 | 0.00 | 0.00 | 0.00 | 84 | 1015.9 |
| 20260505152003 | 12 | 135 | 1.6 | 3.2 | 0.00 | 0.00 | 0.00 | 85 | 1015.9 |
| 20260505151503 | 12 | 203 | 1.6 | 3.2 | 0.00 | 0.00 | 0.00 | 85 | 1015.8 |
| 20260505151003 | 12 | 180 | 1.6 | 3.2 | 0.00 | 0.00 | 0.00 | 86 | 1015.8 |
| 20260505150503 | 12 | 180 | 1.6 | 3.2 | 0.00 | 0.00 | 0.00 | 86 | 1015.8 |
| 20260505140503 | 11 | 0.0 | 3.2 | 0.00 | 0.00 | 0.00 | 88 | 1015.6 | |
| 20260505125005 | 11 | 0.0 | 1.6 | 0.00 | 0.00 | 0.00 | 87 | 1015.2 | |
| 20260505124505 | 11 | 0.0 | 1.6 | 0.00 | 0.00 | 0.00 | 87 | 1015.3 | |
| 20260505124005 | 11 | 0.0 | 1.6 | 0.00 | 0.00 | 0.00 | 86 | 1015.3 | |
| 20260505123505 | 11 | 0.0 | 1.6 | 0.00 | 0.00 | 0.00 | 86 | 1015.2 | |
| 20260505123005 | 11 | 0.0 | 1.6 | 0.00 | 0.00 | 0.00 | 86 | 1015.5 | |
| 20260505122505 | 11 | 0.0 | 1.6 | 0.00 | 0.00 | 0.00 | 86 | 1015.4 | |
| 20260505122005 | 11 | 0.0 | 1.6 | 0.00 | 0.00 | 0.00 | 86 | 1015.2 | |
| 20260505121505 | 11 | 0.0 | 1.6 | 0.00 | 0.00 | 0.00 | 86 | 1015.4 | |
| 20260505121025 | 11 | 0.0 | 1.6 | 0.00 | 0.00 | 0.00 | 85 | 1015.3 | |
| 20260505120505 | 11 | 0.0 | 1.6 | 0.00 | 0.00 | 0.00 | 85 | 1015.1 | |
| 20260505120025 | 11 | 0.0 | 1.6 | 0.00 | 0.00 | 0.00 | 85 | 1015.1 | |
| 20260505115505 | 11 | 0.0 | 1.6 | 0.00 | 0.00 | 0.00 | 85 | 1015.2 | |
| 20260505115005 | 11 | 0.0 | 1.6 | 0.00 | 0.00 | 0.00 | 84 | 1015.3 | |
| 20260505114525 | 11 | 0.0 | 1.6 | 0.00 | 0.00 | 0.00 | 84 | 1015.3 | |
| 20260505114005 | 11 | 0.0 | 1.6 | 0.00 | 0.00 | 0.00 | 84 | 1015.4 | |
| 20260505113506 | 11 | 0.0 | 1.6 | 0.00 | 0.00 | 0.00 | 84 | 1015.4 | |
| 20260505113005 | 11 | 0.0 | 1.6 | 0.00 | 0.00 | 0.00 | 84 | 1015.3 | |
| 20260505112524 | 11 | 0.0 | 0.0 | 0.00 | 0.00 | 0.00 | 83 | 1015.4 | |
| 20260505112005 | 11 | 0.0 | 1.6 | 0.00 | 0.00 | 0.00 | 83 | 1015.3 | |
| 20260505111505 | 11 | 0.0 | 1.6 | 0.00 | 0.00 | 0.00 | 83 | 1015.4 | |
| 20260505111005 | 11 | 0.0 | 0.0 | 0.00 | 0.00 | 0.00 | 83 | 1015.4 | |
| 20260505110525 | 11 | 0.0 | 1.6 | 0.00 | 0.00 | 0.00 | 83 | 1015.4 | |
| 20260505102005 | 12 | 0.0 | 0.0 | 0.00 | 0.00 | 0.00 | 81 | 1015.3 | |
| 20260505101524 | 12 | 0.0 | 1.6 | 0.00 | 0.00 | 0.00 | 81 | 1015.3 | |
| 20260505101005 | 12 | 0.0 | 1.6 | 0.00 | 0.00 | 0.00 | 81 | 1015.4 | |
| 20260505100504 | 12 | 0.0 | 1.6 | 0.00 | 0.00 | 0.00 | 80 | 1015.6 | |
| 20260505100004 | 12 | 0.0 | 1.6 | 0.00 | 0.00 | 0.00 | 80 | 1015.5 | |
| 20260505095504 | 12 | 0.0 | 1.6 | 0.00 | 0.00 | 0.00 | 80 | 1015.6 | |
| 20260505095005 | 12 | 0.0 | 1.6 | 0.00 | 0.00 | 0.00 | 80 | 1015.5 | |
| 20260505094524 | 12 | 0.0 | 1.6 | 0.00 | 0.00 | 0.00 | 79 | 1015.5 | |
| 20260505094004 | 12 | 0.0 | 1.6 | 0.00 | 0.00 | 0.00 | 79 | 1015.4 | |
| 20260505093504 | 12 | 0.0 | 1.6 | 0.00 | 0.00 | 0.00 | 78 | 1015.6 | |
| 20260505093005 | 12 | 0.0 | 1.6 | 0.00 | 0.00 | 0.00 | 78 | 1015.7 | |
| 20260505092544 | 12 | 0.0 | 1.6 | 0.00 | 0.00 | 0.00 | 77 | 1015.6 | |
| 20260505092005 | 12 | 0.0 | 1.6 | 0.00 | 0.00 | 0.00 | 77 | 1015.5 | |
| 20260505091505 | 12 | 315 | 1.6 | 3.2 | 0.00 | 0.00 | 0.00 | 77 | 1015.6 |
| 20260505091025 | 12 | 315 | 1.6 | 4.8 | 0.00 | 0.00 | 0.00 | 76 | 1015.7 |
| 20260505090505 | 12 | 338 | 1.6 | 3.2 | 0.00 | 0.00 | 0.00 | 76 | 1015.8 |
| 20260505090005 | 12 | 0.0 | 3.2 | 0.00 | 0.00 | 0.00 | 76 | 1015.8 | |
| 20260505085504 | 12 | 315 | 1.6 | 4.8 | 0.00 | 0.00 | 0.00 | 76 | 1015.9 |
| 20260505085005 | 12 | 315 | 1.6 | 3.2 | 0.00 | 0.00 | 0.00 | 76 | 1015.8 |
| 20260505084505 | 12 | 0.0 | 3.2 | 0.00 | 0.00 | 0.00 | 76 | 1015.9 | |
| 20260505084024 | 12 | 315 | 1.6 | 3.2 | 0.00 | 0.00 | 0.00 | 76 | 1016.0 |
| 20260505083504 | 12 | 315 | 1.6 | 3.2 | 0.00 | 0.00 | 0.00 | 76 | 1016.1 |
| 20260505083005 | 12 | 315 | 1.6 | 3.2 | 0.00 | 0.00 | 0.00 | 75 | 1016.1 |
| 20260505082504 | 12 | 293 | 1.6 | 3.2 | 0.00 | 0.00 | 0.00 | 75 | 1016.2 |
| 20260505082004 | 12 | 315 | 1.6 | 4.8 | 0.00 | 0.00 | 0.00 | 75 | 1016.1 |
| 20260505081504 | 12 | 315 | 1.6 | 4.8 | 0.00 | 0.00 | 0.00 | 74 | 1016.2 |
| 20260505081004 | 12 | 315 | 1.6 | 6.4 | 0.00 | 0.00 | 0.00 | 74 | 1016.1 |
| 20260505080504 | 12 | 315 | 1.6 | 4.8 | 0.00 | 0.00 | 0.00 | 73 | 1016.2 |
| 20260505080024 | 12 | 315 | 1.6 | 4.8 | 0.00 | 0.00 | 0.00 | 72 | 1016.3 |
| 20260505075505 | 12 | 315 | 1.6 | 4.8 | 0.00 | 0.00 | 0.00 | 72 | 1016.3 |
| 20260505075005 | 12 | 315 | 1.6 | 6.4 | 0.00 | 0.00 | 0.00 | 72 | 1016.3 |
| 20260505074524 | 12 | 315 | 3.2 | 8.0 | 0.00 | 0.00 | 0.00 | 72 | 1016.3 |
| 20260505074004 | 12 | 293 | 3.2 | 9.7 | 0.00 | 0.00 | 0.00 | 72 | 1016.3 |
| 20260505073524 | 12 | 315 | 3.2 | 6.4 | 0.00 | 0.00 | 0.00 | 72 | 1016.3 |
| 20260505073024 | 12 | 315 | 3.2 | 4.8 | 0.00 | 0.00 | 0.00 | 72 | 1016.2 |
| 20260505072504 | 12 | 338 | 3.2 | 8.0 | 0.00 | 0.00 | 0.00 | 72 | 1016.3 |
| 20260505072004 | 12 | 338 | 3.2 | 6.4 | 0.00 | 0.00 | 0.00 | 72 | 1016.3 |
| 20260505071504 | 12 | 293 | 3.2 | 9.7 | 0.00 | 0.00 | 0.00 | 72 | 1016.2 |
| 20260505071004 | 12 | 338 | 1.6 | 4.8 | 0.00 | 0.00 | 0.00 | 72 | 1016.1 |
| 20260505070505 | 12 | 315 | 3.2 | 8.0 | 0.00 | 0.00 | 0.00 | 72 | 1016.0 |
| 20260505070046 | 12 | 315 | 3.2 | 14.5 | 0.00 | 0.00 | 0.00 | 73 | 1016.0 |
| 20260505065504 | 12 | 315 | 3.2 | 8.0 | 0.00 | 0.00 | 0.00 | 73 | 1015.9 |
| 20260505065004 | 12 | 338 | 3.2 | 11.3 | 0.00 | 0.00 | 0.00 | 73 | 1015.9 |
| 20260505064504 | 12 | 338 | 1.6 | 6.4 | 0.00 | 0.00 | 0.00 | 74 | 1015.8 |
| 20260505064024 | 12 | 315 | 1.6 | 8.0 | 0.00 | 0.00 | 0.00 | 74 | 1015.9 |
| 20260505063503 | 12 | 315 | 1.6 | 4.8 | 0.00 | 0.00 | 0.00 | 75 | 1015.9 |
| 20260505063004 | 12 | 315 | 1.6 | 6.4 | 0.00 | 0.00 | 0.00 | 75 | 1015.9 |
| 20260505062525 | 12 | 315 | 1.6 | 4.8 | 0.00 | 0.00 | 0.00 | 75 | 1015.9 |
| 20260505062004 | 12 | 315 | 3.2 | 6.4 | 0.00 | 0.00 | 0.00 | 76 | 1015.8 |
| 20260505061503 | 13 | 270 | 1.6 | 4.8 | 0.00 | 0.00 | 0.00 | 76 | 1015.7 |
| 20260505061024 | 13 | 338 | 1.6 | 6.4 | 0.00 | 0.00 | 0.00 | 76 | 1015.7 |
| 20260505060504 | 13 | 270 | 1.6 | 6.4 | 0.00 | 0.00 | 0.00 | 76 | 1015.7 |
| 20260505060004 | 13 | 315 | 1.6 | 4.8 | 0.00 | 0.00 | 0.00 | 75 | 1015.6 |
| 20260505055503 | 13 | 315 | 1.6 | 6.4 | 0.00 | 0.00 | 0.00 | 75 | 1015.7 |
| 20260505055004 | 13 | 315 | 3.2 | 6.4 | 0.00 | 0.00 | 0.00 | 75 | 1015.8 |
| 20260505054504 | 13 | 315 | 3.2 | 8.0 | 0.00 | 0.00 | 0.00 | 76 | 1015.9 |
| 20260505054003 | 13 | 315 | 1.6 | 8.0 | 0.00 | 0.00 | 0.00 | 76 | 1015.8 |
| 20260505053504 | 13 | 315 | 1.6 | 4.8 | 0.00 | 0.00 | 0.00 | 76 | 1015.9 |
| 20260505053004 | 13 | 315 | 3.2 | 8.0 | 0.00 | 0.00 | 0.00 | 76 | 1016.0 |
| 20260505052504 | 13 | 338 | 3.2 | 6.4 | 0.00 | 0.00 | 0.00 | 76 | 1016.0 |
| 20260505052004 | 13 | 0 | 3.2 | 12.9 | 0.00 | 0.00 | 0.00 | 77 | 1016.2 |
| 20260505051504 | 13 | 338 | 3.2 | 9.7 | 0.00 | 0.00 | 0.00 | 77 | 1016.1 |
| 20260505051003 | 13 | 338 | 3.2 | 9.7 | 0.00 | 0.00 | 0.00 | 78 | 1016.1 |
| 20260505050503 | 13 | 338 | 4.8 | 11.3 | 0.00 | 0.00 | 0.00 | 78 | 1016.1 |
| 20260505041503 | 13 | 338 | 1.6 | 4.8 | 0.00 | 0.00 | 0.00 | 76 | 1015.7 |
| 20260505041004 | 13 | 338 | 1.6 | 6.4 | 0.00 | 0.00 | 0.00 | 76 | 1015.7 |
| 20260505040504 | 13 | 338 | 1.6 | 4.8 | 0.00 | 0.00 | 0.00 | 75 | 1015.6 |
| 20260505040004 | 13 | 315 | 1.6 | 4.8 | 0.00 | 0.00 | 0.00 | 75 | 1015.6 |
| 20260505035503 | 13 | 338 | 1.6 | 4.8 | 0.00 | 0.00 | 0.00 | 75 | 1015.6 |
| 20260505035004 | 13 | 315 | 1.6 | 6.4 | 0.00 | 0.00 | 0.00 | 75 | 1015.5 |
| 20260505034523 | 14 | 315 | 1.6 | 4.8 | 0.00 | 0.00 | 0.00 | 74 | 1015.5 |
| 20260505034004 | 14 | 338 | 1.6 | 6.4 | 0.00 | 0.00 | 0.00 | 74 | 1015.5 |
| 20260505033504 | 14 | 315 | 1.6 | 4.8 | 0.00 | 0.00 | 0.00 | 73 | 1015.5 |
| 20260505033003 | 14 | 315 | 1.6 | 6.4 | 0.00 | 0.00 | 0.00 | 73 | 1015.4 |
| 20260505032503 | 14 | 315 | 1.6 | 6.4 | 0.00 | 0.00 | 0.00 | 72 | 1015.1 |
| 20260505032044 | 14 | 338 | 3.2 | 8.0 | 0.00 | 0.00 | 0.00 | 72 | 1015.0 |
| 20260505031504 | 15 | 315 | 3.2 | 8.0 | 0.00 | 0.00 | 0.00 | 71 | 1015.2 |
| 20260505031003 | 15 | 338 | 1.6 | 8.0 | 0.00 | 0.00 | 0.00 | 70 | 1015.1 |
| 20260505030503 | 15 | 315 | 1.6 | 4.8 | 0.00 | 0.00 | 0.00 | 70 | 1015.1 |
| 20260505030004 | 15 | 315 | 1.6 | 4.8 | 0.00 | 0.00 | 0.00 | 70 | 1015.1 |
| 20260505025503 | 15 | 338 | 1.6 | 8.0 | 0.00 | 0.00 | 0.00 | 69 | 1015.1 |
| 20260505025003 | 15 | 315 | 1.6 | 6.4 | 0.00 | 0.00 | 0.00 | 69 | 1015.0 |
| 20260505024523 | 15 | 315 | 1.6 | 4.8 | 0.00 | 0.00 | 0.00 | 69 | 1015.0 |
| 20260505024003 | 15 | 315 | 1.6 | 4.8 | 0.00 | 0.00 | 0.00 | 68 | 1015.1 |
| 20260505023523 | 15 | 315 | 3.2 | 6.4 | 0.00 | 0.00 | 0.00 | 68 | 1015.0 |
| 20260505023003 | 15 | 315 | 1.6 | 6.4 | 0.00 | 0.00 | 0.00 | 68 | 1015.0 |
| 20260505022503 | 15 | 315 | 3.2 | 6.4 | 0.00 | 0.00 | 0.00 | 67 | 1014.9 |
| 20260505022003 | 15 | 338 | 3.2 | 8.0 | 0.00 | 0.00 | 0.00 | 67 | 1014.8 |